RH
74 86 99 99 97 87 92 74 69 70 48 40 56 64 64 56 61 78 70 68 57 54 55 60 69 74 70 68 50 52 48 50 48 53 62 65 50 59 60 61 61 62 64 66 62 63 72 72 68
93 99 99 97 99 93 77 46 49 41 37 42 49 50 53 72 68 88 78 63 53 52 62 57 66 71 68 62 54 50 48 48 49 74 79 61 59 70 65 65 63 63 66 66 66 68 71 73 67
90 96 97 90 92 83 55 41 38 35 38 40 44 49 54 80 82 82 70 57 56 73 81 55 60 71 70 65 57 48 47 47 44 52 56 58 51 70 65 59 62 64 66 68 68 68 71 76 76
89 84 76 92 86 49 47 66 30 36 39 42 47 61 71 76 80 67 62 54 51 79 81 60 62 70 76 62 50 45 46 45 44 47 57 64 66 72 60 63 69 70 70 70 70 71 71 63 62
86 76 93 86 72 41 34 34 30 31 34 43 49 66 76 76 71 68 74 71 76 80 94 58 70 74 58 53 45 45 46 46 49 50 59 61 57 65 56 68 70 70 70 65 64 65 64 67 65
90 94 93 87 64 31 26 26 31 36 39 50 61 72 82 77 74 77 77 86 88 84 89 66 69 72 54 46 44 46 46 52 52 55 60 61 61 59 57 69 69 68 65 63 63 62 60 59 59
74 97 85 59 33 31 28 28 34 27 33 49 58 67 85 80 77 76 86 78 80 73 88 65 74 62 51 44 45 46 47 58 55 58 61 58 60 56 54 66 67 65 63 61 61 58 55 56 55
56 96 89 76 27 26 22 24 28 31 36 45 58 67 78 81 77 78 72 76 67 64 86 87 86 54 46 43 43 46 50 57 56 63 65 67 61 62 54 59 65 62 59 56 57 58 50 47 50
43 64 69 50 28 23 18 22 29 32 35 37 50 64 75 78 75 75 76 75 65 65 74 82 88 64 80 48 41 46 52 55 61 67 64 75 81 86 83 66 61 64 61 59 61 64 71 58 58
34 87 66 42 37 33 19 21 25 27 30 44 56 67 73 75 74 74 74 71 63 62 64 69 74 83 84 85 44 45 48 55 76 86 48 74 82 85 92 58 59 61 66 65 55 68 76 75 83
30 46 33 29 27 22 19 18 22 23 29 44 57 64 68 70 69 78 74 64 66 56 55 61 68 74 71 72 49 65 69 72 83 77 50 78 90 82 82 72 74 71 76 73 58 65 71 75 71
28 45 36 30 26 21 28 28 17 21 27 41 54 59 63 66 70 67 69 63 60 50 51 56 65 68 66 68 59 69 65 70 72 73 70 85 77 78 60 75 82 84 87 73 76 74 71 60 49
22 46 34 29 22 28 30 40 30 22 29 38 50 55 59 63 68 69 66 63 56 50 49 55 65 58 65 71 60 63 61 60 59 66 55 78 74 83 70 85 78 81 83 81 84 79 74 68 53
20 24 25 26 18 14 17 32 33 20 25 36 46 52 53 52 62 64 65 63 62 50 48 55 63 59 67 69 64 65 59 57 61 62 64 71 88 83 79 81 77 78 80 75 84 76 76 69 62
17 20 18 18 15 14 12 16 22 27 27 34 42 47 50 48 51 54 58 60 52 52 48 52 63 69 68 68 73 66 66 64 58 63 64 62 80 76 73 80 78 78 77 72 71 66 70 68 60
18 20 23 17 16 14 12 16 16 28 27 32 37 41 46 46 42 45 49 52 53 50 49 54 61 72 68 70 73 67 70 64 62 60 63 61 64 78 71 79 84 66 74 74 69 64 71 55 58
19 24 23 20 15 13 12 14 14 22 25 30 33 36 40 44 41 43 42 45 45 49 51 55 59 64 74 78 81 73 73 69 63 61 60 64 56 64 74 74 77 78 74 73 70 65 65 57 52
22 18 18 19 13 12 12 12 14 16 23 28 31 33 36 40 41 42 42 43 45 50 53 56 61 67 71 76 81 85 77 71 67 62 59 61 65 57 69 83 82 80 76 70 64 65 58 60 55
16 13 14 13 12 12 13 12 16 16 30 24 28 32 34 36 38 42 44 45 47 52 56 60 63 66 71 75 81 86 76 74 71 64 60 61 68 63 61 81 83 78 75 83 64 62 62 63 55
18 16 12 10 10 13 13 12 12 14 21 21 25 29 32 33 35 40 44 45 48 53 58 61 64 69 76 73 80 76 76 70 69 64 61 61 68 78 68 69 86 85 79 71 60 69 75 62 51
18 18 14 11 9 11 14 15 14 12 14 16 21 26 30 32 34 37 43 43 46 53 57 62 66 72 74 76 81 79 72 68 65 63 61 64 68 74 76 81 75 83 82 84 74 45 66 61 50
15 13 12 12 11 14 14 20 18 12 12 15 16 22 26 30 33 36 41 42 45 50 55 60 65 71 78 76 82 80 73 70 64 62 61 65 68 68 83 81 70 79 69 79 73 56 69 71 51
9 7 10 10 11 11 11 14 14 13 14 14 16 19 24 27 31 36 38 42 44 47 60 61 64 70 81 74 85 80 78 70 62 61 61 62 64 72 73 86 70 62 71 91 80 74 64 58 64
6 7 6 7 9 15 12 13 15 13 15 13 13 15 22 24 28 34 38 40 42 45 58 70 67 71 76 80 71 84 77 72 64 60 62 60 67 79 78 85 83 70 63 88 82 70 58 66 59
7 8 12 13 12 14 10 12 13 9 10 11 11 14 20 21 26 31 39 39 42 44 53 65 72 72 70 70 60 66 82 75 66 62 57 62 66 70 72 67 84 81 68 70 82 67 72 47 58
8 8 11 18 14 10 9 12 12 9 7 7 9 12 15 19 21 29 37 40 42 43 49 60 64 63 63 63 63 53 68 79 58 62 62 58 64 66 67 66 66 60 59 70 82 66 82 70 42
9 10 7 8 8 8 7 8 6 8 8 8 7 9 13 15 18 26 32 39 42 42 47 55 63 61 61 55 64 54 54 57 48 60 62 65 60 62 60 59 63 65 68 62 72 74 68 80 64
8 7 10 9 16 16 10 11 10 10 10 9 9 8 10 12 16 22 30 36 41 42 44 51 59 59 50 52 41 36 30 36 42 50 63 63 71 59 62 59 60 64 69 76 76 70 67 80 75
9 10 10 8 9 12 13 8 7 12 10 10 9 8 9 11 15 20 29 32 39 43 45 49 57 63 64 53 32 31 34 31 31 42 55 64 68 77 58 78 66 62 66 67 78 75 73 70 75
8 10 11 13 18 10 11 9 6 8 9 9 8 8 9 10 15 18 24 30 36 42 45 49 55 62 64 61 58 46 39 30 30 36 43 54 64 63 75 63 79 71 68 58 63 63 59 81 77
Wind_Speed
12 13 13 7 3 5 4 6 6 5 6 20 16 20 15 15 3 4 26 40 36 32 29 26 23 20 19 17 17 16 14 14 14 13 14 13 14 15 15 14 14 13 12 11 10 12 12 12 13
14 13 7 3 3 2 6 10 9 11 16 25 27 25 14 9 13 25 42 41 38 32 26 26 21 19 19 17 16 14 13 13 12 13 12 13 14 15 16 15 15 14 13 12 11 11 10 10 11
15 14 3 3 3 4 4 12 15 17 17 14 18 17 10 9 20 27 37 43 37 28 20 24 20 18 18 17 15 13 12 11 10 11 12 13 14 15 16 15 15 15 15 14 12 10 9 9 9
10 6 7 2 6 8 9 8 14 19 17 20 22 15 14 18 21 25 41 37 33 29 17 22 19 19 18 17 14 13 11 9 9 11 11 12 13 14 15 16 17 17 17 16 14 12 10 11 11
9 6 3 6 6 5 6 18 12 11 14 16 20 14 21 17 25 37 30 31 28 27 19 23 20 19 19 17 14 12 10 9 9 10 11 12 13 13 15 16 17 17 16 15 14 13 13 12 12
3 5 4 5 16 13 11 16 20 12 23 25 27 29 11 28 35 31 33 27 23 23 19 24 21 20 19 16 14 12 10 9 9 10 10 10 11 12 14 15 15 15 14 13 12 13 13 13 13
13 3 6 14 9 14 10 6 7 16 21 20 28 17 20 35 33 34 28 26 28 22 23 26 22 20 18 16 14 12 10 8 9 10 10 11 11 11 12 13 13 13 13 13 13 12 11 10 12
22 7 5 13 12 11 13 15 9 22 18 28 30 11 27 39 35 31 30 27 26 25 21 21 20 21 18 16 13 12 10 9 10 9 10 12 12 11 9 11 11 11 12 13 11 10 11 9 13
24 5 9 9 12 4 18 15 22 20 20 12 14 35 39 39 37 34 29 28 30 28 23 22 19 16 14 14 14 12 11 9 9 7 7 7 9 6 5 8 7 9 11 13 7 6 6 9 11
15 3 6 12 7 8 13 16 20 15 17 31 34 34 38 38 35 32 34 29 29 27 26 23 20 16 13 12 13 12 10 9 9 5 7 12 13 8 3 5 6 7 8 8 7 3 1 3 3
10 6 19 25 17 5 13 17 19 17 17 30 34 39 38 38 34 34 27 30 31 28 27 25 23 19 15 16 11 8 7 6 6 3 6 10 10 9 7 6 6 6 7 2 12 5 9 10 4
11 3 23 17 27 18 5 14 17 12 24 29 32 37 40 37 34 32 29 29 31 30 30 27 26 21 17 18 9 8 8 11 10 7 2 7 5 13 5 6 5 2 5 6 9 11 13 4 9
19 19 24 12 20 30 30 11 4 26 26 27 32 35 36 36 34 28 28 28 28 28 30 30 27 24 21 15 10 14 12 9 8 7 2 1 9 5 4 6 6 1 2 4 5 7 3 5 3
20 22 23 34 19 7 11 21 32 21 28 28 33 34 34 34 39 35 31 30 27 28 29 28 26 24 23 20 16 13 15 10 8 6 6 4 4 4 5 5 8 2 1 5 5 1 3 8 6
24 17 17 16 13 10 13 12 16 8 31 30 31 33 33 32 36 35 37 37 30 27 29 29 25 23 27 25 20 17 10 9 8 4 10 8 9 3 4 5 2 3 4 6 4 10 6 10 4
20 18 17 17 17 13 11 14 15 38 31 29 29 31 33 32 32 33 35 36 33 31 32 30 24 22 29 28 24 21 13 11 9 10 11 8 11 9 5 5 4 2 4 1 3 4 3 8 4
21 17 22 19 19 17 15 16 12 23 29 33 30 29 31 32 31 32 31 33 32 33 34 31 26 27 22 23 21 19 14 14 12 10 10 9 8 9 7 3 3 3 4 5 2 5 3 2 4
19 21 18 21 22 23 20 18 14 25 29 33 35 31 31 33 34 33 31 31 32 32 34 33 28 25 25 22 21 16 16 16 15 12 11 13 10 10 7 3 4 5 3 3 4 4 3 3 2
21 21 24 19 22 26 22 18 19 20 22 25 32 35 33 33 33 34 32 32 31 33 34 35 33 30 29 25 24 22 18 17 15 14 13 14 15 13 11 6 3 3 3 4 4 4 6 4 2
27 25 24 21 23 17 23 21 22 22 28 30 29 33 34 33 36 37 36 36 36 37 36 36 37 34 31 30 25 22 20 18 17 16 16 19 18 14 11 9 5 6 7 6 2 6 5 3 12
28 27 24 22 21 17 15 19 19 20 25 27 31 33 34 35 36 37 40 40 39 38 41 39 38 38 36 32 27 22 21 19 20 18 19 20 20 16 14 12 9 9 7 6 2 7 8 5 6
27 28 26 25 21 17 28 15 18 18 18 22 23 32 34 37 36 39 38 38 40 40 41 41 38 39 39 36 29 29 30 27 23 21 20 19 16 18 15 12 11 12 9 9 3 6 9 4 3
25 24 24 26 22 18 23 16 15 20 20 20 23 32 35 37 39 41 42 42 41 40 41 43 40 38 39 38 31 29 28 27 23 21 19 21 19 16 16 17 14 13 14 11 7 8 9 8 8
24 23 23 23 18 18 23 20 19 19 23 21 22 30 35 37 39 41 42 40 40 39 40 40 40 39 39 36 39 31 32 28 26 25 23 22 22 21 17 20 16 14 17 12 11 11 8 11 12
23 21 13 16 17 16 22 22 16 16 19 26 24 30 35 34 39 40 44 43 44 41 43 42 42 42 39 42 38 40 33 31 29 26 25 24 24 24 20 19 22 20 16 17 14 11 9 12 15
27 25 15 21 18 16 22 24 22 22 24 23 27 36 36 37 37 43 46 45 46 44 45 46 46 44 41 42 42 38 40 36 33 31 27 28 25 23 23 22 21 18 18 20 18 18 13 13 14
23 26 24 20 20 16 19 28 25 24 25 23 19 30 37 39 38 43 44 45 47 46 46 48 48 46 42 41 43 40 41 41 36 35 32 26 27 23 24 23 24 22 20 22 23 21 18 14 15
31 22 21 17 21 20 19 21 19 24 23 24 19 19 32 36 36 39 44 44 46 49 48 48 48 49 43 42 43 45 44 44 42 35 34 34 26 28 21 27 26 24 21 25 23 25 23 20 22
22 21 24 19 17 15 13 13 13 25 22 19 21 25 25 32 37 37 44 45 47 47 45 49 48 48 47 43 44 46 46 44 44 43 37 36 33 26 28 21 28 27 24 25 29 28 24 24 25
28 28 25 13 22 15 14 4 11 5 20 16 15 31 23 27 35 37 41 43 43 44 46 48 48 47 50 47 43 46 46 46 44 44 45 40 38 36 33 32 28 32 28 26 30 33 31 28 30
Wind_Direction
173 148 151 181 238 223 200 237 170 261 108 107 96 96 77 55 119 148 149 154 154 150 142 140 138 138 139 134 130 121 119 107 97 96 86 84 88 84 83 83 85 88 89 96 94 85 75 67 65
170 175 174 261 253 242 159 110 117 103 110 91 112 124 81 67 96 128 148 156 153 149 145 147 141 139 139 139 133 125 122 107 105 97 99 92 90 88 84 81 82 86 90 90 93 85 74 66 66
168 192 265 231 216 199 151 103 137 112 105 109 108 76 61 105 117 132 157 154 155 140 148 158 148 142 142 143 136 131 121 113 106 103 96 96 95 89 84 85 85 88 89 89 88 86 78 70 62
184 214 258 260 292 248 128 234 130 116 124 117 108 87 91 125 134 143 148 157 152 138 160 168 156 147 148 144 140 132 126 115 107 106 100 103 99 93 94 94 91 92 90 85 82 78 78 76 63
196 267 265 276 247 210 194 132 118 120 106 113 107 102 116 126 137 139 146 147 146 142 169 171 160 153 152 147 143 139 137 118 110 108 106 104 103 102 105 103 99 94 90 87 83 79 72 65 62
158 29 295 263 234 149 122 136 118 144 113 109 104 114 112 136 143 147 149 153 149 149 164 167 161 158 155 151 147 147 136 118 118 111 106 103 102 103 109 109 104 97 88 84 80 75 67 61 62
117 155 249 254 127 107 111 103 120 120 105 113 133 112 136 145 149 151 147 154 149 156 161 165 160 162 161 156 154 152 136 122 123 118 104 92 91 99 108 113 106 94 82 77 73 71 69 66 67
230 171 249 260 75 111 106 129 80 98 102 122 138 142 151 152 153 152 154 143 156 156 160 158 165 165 165 159 158 153 138 128 128 114 104 98 93 90 101 110 104 98 85 78 83 85 71 70 80
252 305 313 323 99 214 126 91 94 106 122 114 116 138 148 151 151 156 157 163 161 160 158 159 162 168 163 166 163 156 143 135 119 104 131 146 111 100 91 105 110 98 84 78 84 92 80 70 100
235 89 268 224 309 261 97 122 129 129 110 108 115 131 145 153 155 159 158 161 161 161 162 166 165 169 169 161 165 156 145 119 104 145 135 148 108 127 173 111 98 97 94 100 94 113 94 54 244
210 182 239 277 292 111 127 135 132 136 127 126 138 145 153 157 158 157 162 165 166 165 166 171 172 170 162 183 170 137 120 111 144 252 111 236 140 134 153 98 107 103 74 95 50 92 55 50 43
203 125 268 299 294 125 11 353 145 168 127 134 148 152 155 161 163 164 165 170 171 169 173 173 179 172 174 193 196 160 178 175 187 245 223 124 170 121 125 97 105 48 210 56 63 43 44 75 116
242 184 214 270 268 118 114 218 296 120 125 136 149 157 159 165 165 170 170 175 177 175 174 177 180 179 184 182 176 179 188 181 194 227 283 20 74 92 72 93 107 119 97 346 46 42 30 82 108
231 190 196 215 225 192 172 182 143 153 136 143 155 162 166 172 169 171 175 181 190 181 177 178 184 186 192 180 193 199 190 197 185 193 233 174 113 165 136 149 144 177 264 51 90 113 91 88 80
249 247 249 253 225 217 195 192 181 116 139 149 162 167 170 174 176 175 180 181 180 184 179 185 186 193 194 193 196 191 179 194 204 215 212 237 169 215 150 133 114 78 27 49 102 46 95 132 137
248 233 242 223 225 220 200 220 183 161 152 154 165 172 175 182 180 182 182 181 187 182 186 189 188 202 204 201 202 192 178 214 202 210 248 263 191 179 182 161 187 145 78 148 74 50 97 104 154
235 236 235 236 207 222 204 240 174 161 162 158 167 176 180 184 187 184 187 186 186 184 186 189 190 203 211 200 205 201 197 204 214 214 232 254 227 191 192 210 172 110 121 127 43 147 124 189 187
220 223 230 228 202 210 206 228 164 192 178 166 167 176 183 187 190 186 190 188 186 186 191 190 192 198 209 209 200 214 194 215 203 217 220 247 252 238 218 205 163 124 183 213 193 170 176 113 157
236 225 222 232 226 199 213 209 167 184 117 191 173 172 185 188 190 186 191 191 191 189 196 199 197 197 207 209 205 196 212 213 219 208 217 239 249 243 224 224 295 173 235 207 300 158 92 128 271
231 245 235 228 225 194 215 216 196 182 179 220 176 177 182 188 188 188 191 191 194 191 197 202 200 199 204 211 211 200 207 211 223 211 216 228 243 226 235 219 215 205 255 217 219 194 168 174 170
224 231 242 242 234 188 240 221 228 194 180 210 184 184 183 189 189 189 188 194 193 193 197 203 204 201 206 209 202 204 207 209 220 217 216 229 236 231 222 229 221 221 232 245 211 166 163 159 209
223 225 238 249 245 218 202 220 211 221 221 178 201 183 187 186 191 189 191 196 193 197 201 206 208 206 209 205 203 204 203 209 206 222 218 231 240 227 230 242 226 214 200 242 229 149 170 163 145
229 221 226 246 256 257 239 227 223 206 214 199 195 186 190 186 189 188 190 196 198 196 197 203 211 213 211 211 197 208 210 208 214 217 220 223 236 237 218 232 235 218 199 222 226 212 192 184 175
218 231 222 224 244 245 244 244 215 214 204 218 192 197 189 186 189 190 188 194 199 198 196 198 210 214 213 213 203 203 216 207 211 215 216 219 223 227 223 223 231 235 196 207 238 232 213 177 187
214 215 213 218 214 230 231 244 247 241 206 204 203 190 187 190 186 186 184 189 194 199 196 196 207 215 217 217 214 207 208 217 206 216 213 216 218 229 236 223 223 232 220 205 236 229 225 200 197
211 213 214 212 219 222 226 229 233 246 259 246 200 187 189 189 192 183 185 187 191 197 197 197 207 217 218 215 218 212 212 216 210 208 222 212 215 223 227 236 233 242 233 215 213 232 228 233 213
194 216 218 227 222 229 224 220 239 224 236 247 232 196 187 190 192 183 183 187 190 194 200 199 206 217 219 217 216 218 215 218 218 210 211 220 214 218 226 233 234 236 237 228 217 221 229 232 235
227 198 216 229 243 232 226 229 211 214 220 218 229 229 191 190 184 182 182 187 192 196 199 201 206 216 220 219 218 222 221 222 219 219 213 211 218 214 216 228 230 236 243 224 224 223 221 229 238
208 212 209 230 237 241 251 228 222 195 200 209 209 208 208 190 182 181 182 187 195 195 195 201 204 212 218 220 219 220 224 223 222 221 221 217 212 217 217 229 231 237 242 228 222 224 224 230 233
211 216 208 221 218 246 271 306 32 218 180 176 225 185 215 202 180 182 181 188 191 194 197 201 205 208 219 221 222 223 223 225 224 224 225 224 222 218 220 221 226 236 243 237 228 228 222 223 240